Weather History for Gary, IN

Change the Weather History Date:

Friday, October 25, 2013

  Actual Average Record
Temperature  
Mean Temperature 40 °F -  
Max Temperature 52 °F 58 °F 83 °F (1963)
Min Temperature 30 °F 42 °F 28 °F (2006)
Degree Days  
Heating Degree Days 24    
Moisture  
Dew Point 26 °F    
Average Humidity 58    
Maximum Humidity 80    
Minimum Humidity 33    
Precipitation  
Precipitation 0.00 in - - ()
Sea Level Pressure  
Sea Level Pressure 30.27 in    
Wind  
Wind Speed 7 mph (WSW)    
Max Wind Speed 14 mph    
Max Gust Speed 22 mph    
Visibility 14 miles    
Events      
Averages and records for this station are not official NWS values.
T = Trace of Precipitation, MM = Missing Value Source: NWS Daily Summary

Daily Weather History Graph

Daily Weather History Graph

Search for Another Location

Airport:

Trip Planner

Search our weather history database for the weather conditions in past years. The results will help you decide how hot, cold, wet, or windy it might be!

Date:

Astronomy

Oct. 25, 2013 Rise Set
Actual Time 7:13 AM CDT 5:53 PM CDT
Civil Twilight 6:45 AM CDT 6:21 PM CDT
Nautical Twilight 6:12 AM CDT 6:54 PM CDT
Astronomical Twilight 5:40 AM CDT 7:26 PM CDT
Moon 11:11 PM CDT (10/25) 12:55 PM CDT (10/25)
Length of Visible Light 11h 36m
Length of Day
10h 39m
Waning Gibbous, 62% of the Moon is Illuminated
Oct 25
Waning Gibbous
Oct 26
Last Quarter
Nov 3
New
Nov 9
First Quarter
Nov 17
Full

Hourly Weather History & Observations

Time (CDT) Temp. Windchill Dew Point Humidity Pressure Visibility Wind Dir Wind Speed Gust Speed Precip Events Conditions
12:15 AM 36.0 °F 30.3 °F 25.7 °F 66% 30.30 in 10.0 mi West 6.9 mph - N/A   Clear
12:35 AM 35.6 °F 29.9 °F 25.5 °F 67% 30.31 in 10.0 mi West 6.9 mph - N/A   Clear
12:55 AM 34.7 °F 29.6 °F 25.2 °F 68% 30.31 in 10.0 mi West 5.8 mph - N/A   Clear
1:15 AM 33.8 °F - 25.2 °F 71% 30.31 in 10.0 mi Calm Calm - N/A   Clear
1:35 AM 33.3 °F 28.9 °F 25.5 °F 73% 30.32 in 10.0 mi West 4.6 mph - N/A   Clear
1:55 AM 33.8 °F 27.0 °F 25.7 °F 72% 30.32 in 10.0 mi West 8.1 mph - N/A   Clear
2:15 AM 33.4 °F 26.6 °F 25.5 °F 73% 30.32 in 10.0 mi West 8.1 mph - N/A   Clear
2:35 AM 33.8 °F 27.0 °F 25.5 °F 72% 30.34 in 10.0 mi West 8.1 mph - N/A   Clear
2:55 AM 34.0 °F 27.2 °F 25.7 °F 72% 30.34 in 10.0 mi West 8.1 mph - N/A   Clear
3:15 AM 34.0 °F 28.8 °F 25.7 °F 72% 30.34 in 10.0 mi WSW 5.8 mph - N/A   Clear
3:35 AM 33.1 °F 28.7 °F 25.7 °F 74% 30.34 in 10.0 mi WSW 4.6 mph - N/A   Clear
3:55 AM 32.9 °F 28.5 °F 25.9 °F 75% 30.35 in 10.0 mi WSW 4.6 mph - N/A   Clear
4:15 AM 32.4 °F 27.9 °F 25.7 °F 76% 30.35 in 10.0 mi WSW 4.6 mph - N/A   Clear
4:35 AM 32.2 °F 27.7 °F 25.5 °F 76% 30.35 in 10.0 mi WSW 4.6 mph - N/A   Clear
4:45 AM 32.0 °F 25.6 °F 24.8 °F 75% 30.35 in 15.0 mi West 6.9 mph - N/A   Clear
5:45 AM 32.0 °F 24.8 °F 24.8 °F 75% 30.38 in 15.0 mi WSW 8.1 mph - N/A   Clear
6:45 AM 32.0 °F 24.8 °F 24.8 °F 75% 30.39 in 15.0 mi WSW 8.1 mph - N/A   Partly Cloudy
7:45 AM 30.2 °F 24.3 °F 24.8 °F 80% 30.39 in 20.0 mi WSW 5.8 mph - N/A   Partly Cloudy
8:45 AM 33.8 °F 27.7 °F 24.8 °F 70% 30.41 in 20.0 mi WSW 6.9 mph - N/A   Partly Cloudy
10:45 AM 44.6 °F 39.7 °F 26.6 °F 49% 30.41 in 20.0 mi West 9.2 mph - N/A   Partly Cloudy
11:45 AM 46.4 °F 43.5 °F 26.6 °F 46% 30.40 in 20.0 mi SW 5.8 mph - N/A   Partly Cloudy
12:45 PM 48.2 °F - 23.0 °F 37% 30.36 in 20.0 mi WSW 11.5 mph - N/A   Scattered Clouds
1:45 PM 50.0 °F - 24.8 °F 37% 30.32 in 20.0 mi West 11.5 mph - N/A   Scattered Clouds
2:45 PM 51.8 °F - 24.8 °F 35% 30.30 in 20.0 mi WSW 13.8 mph - N/A   Scattered Clouds
3:45 PM 51.8 °F - 23.0 °F 33% 30.26 in 20.0 mi SW 13.8 mph - N/A   Scattered Clouds
4:45 PM 51.8 °F - 23.0 °F 33% 30.23 in 20.0 mi WSW 13.8 mph - N/A   Partly Cloudy
5:45 PM 50.0 °F - 24.8 °F 37% 30.25 in 20.0 mi SW 10.4 mph - N/A   Partly Cloudy
6:45 PM 48.2 °F - 26.6 °F 43% 30.20 in 20.0 mi SSW 8.1 mph - N/A   Clear
7:45 PM 46.4 °F 42.9 °F 26.6 °F 46% 30.18 in 20.0 mi SSW 6.9 mph - N/A   Clear
8:45 PM 44.6 °F 39.2 °F 26.6 °F 49% 30.15 in 20.0 mi SSW 10.4 mph - N/A   Clear
9:15 PM 44.8 °F 41.0 °F 26.1 °F 48% 30.14 in 10.0 mi SSW 6.9 mph - N/A   Clear
9:35 PM 44.8 °F 40.4 °F 25.7 °F 47% 30.14 in 10.0 mi SSW 8.1 mph - N/A   Scattered Clouds
9:45 PM 44.6 °F 38.8 °F 26.6 °F 49% 30.13 in 20.0 mi SW 11.5 mph - N/A   Partly Cloudy
9:55 PM 44.6 °F 40.7 °F 26.2 °F 49% 30.13 in 10.0 mi SSW 6.9 mph - N/A   Scattered Clouds
10:15 PM 45.0 °F 41.8 °F 26.6 °F 49% 30.13 in 10.0 mi SSW 5.8 mph - N/A   Mostly Cloudy
10:35 PM 45.0 °F 41.2 °F 27.3 °F 50% 30.12 in 10.0 mi SSW 6.9 mph - N/A   Overcast
10:55 PM 45.0 °F 40.1 °F 27.3 °F 50% 30.12 in 10.0 mi SSW 9.2 mph - N/A   Scattered Clouds
11:15 PM 45.0 °F 39.7 °F 27.5 °F 50% 30.12 in 10.0 mi SW 10.4 mph 16.1 mph N/A   Clear
11:35 PM 45.3 °F 41.1 °F 27.5 °F 50% 30.11 in 10.0 mi SSW 8.1 mph 18.4 mph N/A   Clear
11:55 PM 45.0 °F 39.3 °F 27.1 °F 50% 30.09 in 10.0 mi SSW 11.5 mph 21.9 mph N/A   Scattered Clouds